Tracking 29892 objects as of 21-Nov-2024
HD Live streaming from Space Station
objects crossing your sky now

STARLINK-31112

Track STARLINK-31112 now!
10-day predictions
STARLINK-31112 is classified as:


NORAD ID: 58680
Int'l Code: 2023-211P
Perigee: 494.9 km
Apogee: 495.4 km
Inclination: 43.0 °
Period: 94.4 minutes
Semi major axis: 6866 km
RCS: Unknown
Launch date: December 29, 2023
Source: United States (US)
Launch site: AIR FORCE EASTERN TEST RANGE (AFETR)
Your satellite tracking list
Your tracking list is empty




NASA's NSSDC Master Catalog

Two Line Element Set (TLE):
1 58680U 23211P   24325.80748306  .00008156  00000-0  32112-3 0  9990
2 58680  42.9960 238.6476 0000377 250.2161 109.8650 15.25925445 51208
Source of the keplerian elements: AFSPC